This is the latest recevied weather packets stored in our database for station/object WA1OUI. If no packets are shown the sender has not sent any weather packets the latest 10 day(s).
| Time | Temp. | Humidity | Pressure | Rain* | Wind** | Luminosity | Snow |
|---|---|---|---|---|---|---|---|
| 1777846665 | 11.67° C | 36% | 1007.3 hPa | 0 mm | - | 23 W/m² | - |
| 1777846363 | 11.67° C | 34% | 1007.3 hPa | 0 mm | - | 24 W/m² | - |
| 1777846059 | 11.67° C | 34% | 1007.3 hPa | 0 mm | - | 26 W/m² | - |
| 1777845756 | 12.22° C | 34% | 1007.4 hPa | 0 mm | - | 27 W/m² | - |
| 1777845453 | 11.67° C | 33% | 1007.3 hPa | 0 mm | - | 28 W/m² | - |
| 1777845150 | 12.22° C | 37% | 1007.4 hPa | 0 mm | - | 31 W/m² | - |
| 1777844848 | 12.22° C | 32% | 1007.5 hPa | 0 mm | - | 30 W/m² | - |
| 1777844545 | 12.22° C | 33% | 1007.4 hPa | 0 mm | - | 29 W/m² | - |
| 1777844243 | 12.22° C | 33% | 1007.3 hPa | 0 mm | - | 32 W/m² | - |
| 1777843940 | 12.22° C | 35% | 1007.5 hPa | 0 mm | - | 38 W/m² | - |
| 1777843636 | 12.22° C | 34% | 1007.5 hPa | 0 mm | - | 36 W/m² | - |
| 1777843334 | 12.22° C | 32% | 1007.3 hPa | 0 mm | - | 36 W/m² | - |
| 1777843032 | 12.22° C | 34% | 1007.3 hPa | 0 mm | - | 39 W/m² | - |
| 1777842728 | 12.78° C | 35% | 1007.3 hPa | 0 mm | - | 41 W/m² | - |
| 1777842423 | 12.78° C | 33% | 1007.3 hPa | 0 mm | - | 65 W/m² | - |
| 1777842121 | 12.78° C | 33% | 1007.3 hPa | 0 mm | - | 66 W/m² | - |
| 1777841815 | 12.78° C | 35% | 1007.3 hPa | 0 mm | - | 117 W/m² | - |
| 1777841512 | 12.78° C | 33% | 1007.2 hPa | 0 mm | - | 99 W/m² | - |
| 1777841209 | 12.78° C | 32% | 1007.4 hPa | 0 mm | - | 126 W/m² | - |
| 1777840907 | 12.78° C | 33% | 1007.3 hPa | 0 mm | - | 146 W/m² | - |
| 1777840603 | 12.78° C | 32% | 1007.4 hPa | 0 mm | - | 397 W/m² | - |
| 1777840301 | 13.33° C | 32% | 1007.4 hPa | 0 mm | - | 403 W/m² | - |
| 1777839998 | 13.33° C | 32% | 1007.3 hPa | 0 mm | - | 451 W/m² | - |
| 1777839696 | 13.33° C | 34% | 1007.5 hPa | 0 mm | - | 413 W/m² | - |
| 1777839394 | 13.33° C | 31% | 1007.2 hPa | 0 mm | - | 429 W/m² | - |
* Rain latest hour (hover to see other rain measurements)
** Current wind speed in m/s (hover to see current wind gust speed)